Miscellaneous Local Product
Issued by NWS Hastings, NE

Home | Current Version | Previous Version | Text Only | Print | Product List | Glossary Off
Versions: 1 2 3 4 5 6 7 8 9 10 11 12 13 14 15 16 17 18 19 20 21 22 23 24 25 26 27 28 29 30 31 32 33 34 35 36 37 38 39 40 41 42 43 44 45 46 47 48 49 50

000
AXUS43 KGID 311002
MISGRI

GID CWA HOURLY WEATHER ROUNDUP
NATIONAL WEATHER SERVICE HASTINGS NE
500 AM CDT TUE MAR 31 2015

NOTE: "FAIR" INDICATES FEW OR NO CLOUDS BELOW 12,000 FEET WITH NO
SIGNIFICANT WEATHER AND/OR OBSTRUCTIONS TO VISIBILITY.

...SOUTH CENTRAL NEBRASKA...

CITY           SKY/WX    TMP DP  RH WIND       PRES   REMARKS
GRAND ISLAND   CLEAR     35  27  72 W6        30.01R WCI  30
HASTINGS       CLEAR     41  25  53 N3        30.00R
KEARNEY        CLEAR     39  21  48 NW10      30.01S WCI  32
ORD            CLEAR     33  24  69 NW3       30.00S
YORK           CLEAR     37  30  75 N7        29.99S WCI  32
AURORA         CLEAR     37  28  70 N3        30.00R
LEXINGTON      CLEAR     33  24  70 W6        30.02S WCI  27
HOLDREGE       CLEAR     39  24  54 NW3       30.00F
HEBRON         CLEAR     37  29  74 CALM      29.98S

...NEBRASKA PANHANDLE...

CITY           SKY/WX    TMP DP  RH WIND       PRES   REMARKS
CHADRON        CLEAR     31  25  78 CALM      30.01F
ALLIANCE       CLEAR     27  22  81 W6        30.04F WCI  20
SCOTTSBLUFF    CLEAR     33  25  72 CALM      30.04F
SIDNEY         CLEAR     32  23  69 NW9       30.06F WCI  24

...WESTERN AND NORTH CENTRAL NEBRASKA...

CITY           SKY/WX    TMP DP  RH WIND       PRES   REMARKS
VALENTINE      CLEAR     33  26  75 SW5       30.01S WCI  29
AINSWORTH      CLEAR     41  27  58 W3        30.01S
ONEILL         CLEAR     38  29  70 W5        30.00R WCI  35
BROKEN BOW     CLEAR     32  21  64 CALM      30.01S
IMPERIAL         N/A     37  21  52 NW3       30.03F
NORTH PLATTE   CLEAR     31  26  82 NW6       30.03S WCI  25
MCCOOK         CLEAR     37  23  56 SW7       30.02S WCI  32

...EASTERN NEBRASKA...

CITY           SKY/WX    TMP DP  RH WIND       PRES   REMARKS
NORFOLK        CLEAR     40  31  70 CALM      29.98R
SO SIOUX CITY  CLEAR     39  31  72 N7        29.96R WCI  34
TEKAMAH        CLEAR     36  25  64 CALM      29.96R
COLUMBUS       CLEAR     36  25  64 W3        30.00S
ALBION         CLEAR     35  28  75 NW6       30.00R WCI  30
OMAHA EPPLEY   CLEAR     42  31  64 NW3       29.96S
MILLARD        CLEAR     44  34  69 CALM      29.97R
LINCOLN        CLEAR     36  30  79 N3        29.99R
NEBRASKA CITY  CLEAR     48  29  47 N7        29.97R
BEATRICE       CLEAR     36  31  80 CALM      29.97S
FALLS CITY     CLEAR     47  33  58 N6        29.95R

...NORTHERN KANSAS...

CITY           SKY/WX    TMP DP  RH WIND       PRES   REMARKS
GOODLAND       CLEAR     34  23  64 S3        30.05S
HILL CITY      CLEAR     38  23  55 CALM      30.00F
NORTON         SUNNY     34  19  55 CALM      29.99S
PHILLIPSBURG   CLEAR     46  27  46 NW6       29.99S
SMITH CENTER   CLEAR     39  27  60 N7        29.99S WCI  34
BELOIT         CLEAR     43  28  56 CALM      29.96S
HAYS           CLEAR     45  23  42 NW5       29.98R
RUSSELL        CLEAR     49  28  44 N8        29.95S
CONCORDIA      CLEAR     47  32  56 N6        29.96R
SALINA         CLEAR     42  35  76 NW7       29.95R
TOPEKA         CLEAR     47  38  71 CALM      29.93S



USA.gov is the U.S. government's official web portal to all federal, state and local government web resources and services.